EW8718 Weather Reports


time (UTC)temp
C
wind
direction
speed
KPH
gust
KPH
rain 1hr
cm
rain 24hr
cm
rain mn
cm
humidity
%
barometer
mb
20260503211521 28 100 3.2 0.0 0.00 0.00 0.00 35 1008.4
20260503210019 28 126 3.2 0.0 0.00 0.00 0.00 35 1008.8
20260503204515 28 171 3.2 0.0 0.00 0.00 0.00 36 1009.2
20260503203024 27 155 1.6 0.0 0.00 0.00 0.00 38 1009.7
20260503201510 27 31 3.2 0.0 0.00 0.00 0.00 39 1009.9
20260503200009 26 101 3.2 0.0 0.00 0.00 0.00 40 1010.1
20260503194541 26 117 3.2 0.0 0.00 0.00 0.00 41 1010.6
20260503193038 25 170 6.4 0.0 0.00 0.00 0.00 42 1010.9
20260503191507 25 113 3.2 0.0 0.00 0.00 0.00 42 1011.2
20260503190007 25 100 3.2 0.0 0.00 0.00 0.00 43 1011.8
20260503184503 24 53 3.2 0.0 0.00 0.00 0.00 44 1012.2
20260503183001 23 124 1.6 0.0 0.00 0.00 0.00 45 1012.6
20260503181605 23 124 3.2 0.0 0.00 0.00 0.00 47 1013.0
20260503180112 22 122 3.2 0.0 0.00 0.00 0.00 47 1013.4
20260503174554 22 111 1.6 0.0 0.00 0.00 0.00 48 1014.0
20260503173058 22 97 1.6 0.0 0.00 0.00 0.00 47 1014.3
20260503171550 21 87 1.6 0.0 0.00 0.00 0.00 50 1014.6
20260503081559 16 92 0.0 0.0 0.00 0.00 0.00 60 1012.3
20260503071600 17 105 3.2 0.0 0.00 0.00 0.00 59 1012.6
20260503054538 17 104 6.4 0.0 0.00 0.00 0.00 57 1012.5
20260503053039 18 86 8.0 0.0 0.00 0.00 0.00 56 1012.2
20260503051531 18 105 6.4 0.0 0.00 0.00 0.00 56 1011.8
20260503050101 18 90 0.0 0.0 0.00 0.00 0.00 55 1011.5
20260503044606 18 121 8.0 0.0 0.00 0.00 0.00 55 1011.3
20260503043056 18 101 4.8 0.0 0.00 0.00 0.00 53 1011.0
20260503041546 19 82 8.0 0.0 0.00 0.00 0.00 52 1010.5
20260503040041 20 76 11.3 0.0 0.00 0.00 0.00 51 1009.8
20260503034538 20 90 9.7 0.0 0.00 0.00 0.00 50 1009.5
20260503033005 20 30 8.0 0.0 0.00 0.00 0.00 49 1009.4
20260503031606 21 84 8.0 0.0 0.00 0.00 0.00 48 1009.1
20260503030056 21 77 9.7 0.0 0.00 0.00 0.00 47 1008.8
20260503024554 21 79 6.4 0.0 0.00 0.00 0.00 47 1008.5
20260503023058 22 80 8.0 0.0 0.00 0.00 0.00 46 1008.2
20260503021549 22 82 6.4 0.0 0.00 0.00 0.00 44 1007.7
20260503020039 22 73 11.3 0.0 0.00 0.00 0.00 44 1007.4
20260503014535 23 80 9.7 0.0 0.00 0.00 0.00 43 1007.2
20260503013031 23 95 6.4 0.0 0.00 0.00 0.00 42 1007.1
20260503011629 24 55 11.3 0.0 0.00 0.00 0.00 41 1006.8
20260503010056 25 74 8.0 0.0 0.00 0.00 0.00 40 1006.6
20260503004550 25 82 8.0 0.0 0.00 0.00 0.00 39 1006.5
20260503003058 26 31 8.0 0.0 0.00 0.00 0.00 37 1006.4
20260503001543 26 78 8.0 0.0 0.00 0.00 0.00 37 1006.2
20260503000059 26 81 6.4 0.0 0.00 0.00 0.00 37 1005.9
20260502234545 26 64 6.4 0.0 0.00 0.00 0.00 36 1005.8
20260502233038 26 81 8.0 0.0 0.00 0.00 0.00 37 1006.1
20260502231542 26 104 6.4 0.0 0.00 0.00 0.00 38 1006.2
20260502230033 26 53 8.0 0.0 0.00 0.00 0.00 37 1006.3
20260502224533 26 114 8.0 0.0 0.00 0.00 0.00 38 1006.4
20260502223028 27 82 8.0 0.0 0.00 0.00 0.00 37 1006.5
20260502221525 27 68 8.0 0.0 0.00 0.00 0.00 37 1006.7
20260502220022 26 29 6.4 0.0 0.00 0.00 0.00 39 1006.8
20260502214520 26 25 9.7 0.0 0.00 0.00 0.00 38 1007.0
20260502213121 26 47 4.8 0.0 0.00 0.00 0.00 40 1007.1